TimeCDT,TemperatureF,Dew PointF,Humidity,Sea Level PressureIn,VisibilityMPH,Wind Direction,Wind SpeedMPH,Gust SpeedMPH,PrecipitationIn,Events,Conditions,WindDirDegrees,DateUTC
12:15 AM,76.1,65.3,69,29.91,10.0,Calm,Calm,-,N/A,,Clear,0,2013-07-24 05:15:00
12:35 AM,75.6,65.8,72,29.92,10.0,Calm,Calm,-,N/A,,Clear,0,2013-07-24 05:35:00
12:55 AM,75.4,66.6,74,29.93,10.0,North,3.5,-,N/A,,Clear,10,2013-07-24 05:55:00
1:15 AM,74.8,65.5,73,29.92,10.0,North,3.5,-,N/A,,Clear,360,2013-07-24 06:15:00
1:35 AM,73.6,64.9,74,29.91,10.0,North,4.6,-,N/A,,Clear,10,2013-07-24 06:35:00
1:55 AM,73.4,64.2,73,29.91,10.0,North,5.8,-,N/A,,Clear,360,2013-07-24 06:55:00
2:15 AM,73.2,64.2,73,29.91,10.0,North,8.1,-,N/A,,Clear,360,2013-07-24 07:15:00
2:35 AM,72.7,64.4,75,29.91,10.0,North,6.9,-,N/A,,Clear,10,2013-07-24 07:35:00
2:55 AM,72.1,64.8,78,29.91,10.0,NNE,5.8,-,N/A,,Clear,30,2013-07-24 07:55:00
3:15 AM,71.6,64.6,78,29.92,10.0,NNE,4.6,-,N/A,,Clear,30,2013-07-24 08:15:00
3:35 AM,71.2,63.7,77,29.92,10.0,NE,5.8,-,N/A,,Clear,40,2013-07-24 08:35:00
3:55 AM,71.2,62.1,73,29.92,10.0,NE,8.1,16.1,N/A,,Clear,40,2013-07-24 08:55:00
4:15 AM,70.7,62.1,74,29.93,10.0,NE,9.2,16.1,N/A,,Clear,50,2013-07-24 09:15:00
4:35 AM,70.2,61.9,75,29.93,10.0,NE,8.1,-,N/A,,Clear,40,2013-07-24 09:35:00
4:55 AM,69.8,60.6,73,29.94,10.0,NE,9.2,-,N/A,,Clear,40,2013-07-24 09:55:00
5:15 AM,69.6,58.8,68,29.95,10.0,NE,5.8,-,N/A,,Clear,40,2013-07-24 10:15:00
5:35 AM,68.2,58.1,70,29.96,10.0,NE,8.1,-,N/A,,Clear,50,2013-07-24 10:35:00
5:55 AM,67.6,55.2,64,29.96,10.0,NE,9.2,-,N/A,,Clear,50,2013-07-24 10:55:00
6:15 AM,67.1,54.3,63,29.96,10.0,NE,5.8,-,N/A,,Clear,50,2013-07-24 11:15:00
6:35 AM,67.1,54.9,65,29.96,10.0,NE,6.9,-,N/A,,Clear,50,2013-07-24 11:35:00
6:55 AM,67.1,54.9,65,29.96,10.0,NE,6.9,-,N/A,,Clear,50,2013-07-24 11:55:00
7:15 AM,67.3,54.9,64,29.96,10.0,NE,8.1,-,N/A,,Clear,40,2013-07-24 12:15:00
7:35 AM,67.1,55.4,66,29.97,10.0,NE,4.6,-,N/A,,Clear,40,2013-07-24 12:35:00
7:55 AM,66.9,55.8,67,29.97,10.0,NE,6.9,-,N/A,,Clear,40,2013-07-24 12:55:00
8:15 AM,67.3,55.6,66,29.98,10.0,NE,8.1,-,N/A,,Clear,50,2013-07-24 13:15:00
8:35 AM,68.9,56.1,64,29.98,10.0,NE,6.9,-,N/A,,Clear,40,2013-07-24 13:35:00
8:55 AM,69.8,56.3,62,29.98,10.0,NNE,4.6,-,N/A,,Clear,30,2013-07-24 13:55:00
9:15 AM,70.2,55.9,61,29.98,10.0,NE,5.8,-,N/A,,Clear,40,2013-07-24 14:15:00
9:35 AM,71.4,55.9,58,29.98,10.0,NNE,5.8,-,N/A,,Clear,20,2013-07-24 14:35:00
9:55 AM,71.8,55.6,57,29.99,10.0,NE,4.6,-,N/A,,Clear,50,2013-07-24 14:55:00
10:15 AM,72.9,56.7,57,30.00,10.0,North,4.6,-,N/A,,Clear,10,2013-07-24 15:15:00
10:35 AM,73.6,56.8,56,30.00,10.0,NNE,3.5,-,N/A,,Clear,20,2013-07-24 15:35:00
10:55 AM,74.5,57.4,55,30.00,10.0,Calm,Calm,-,N/A,,Clear,0,2013-07-24 15:55:00
11:15 AM,75.2,57.2,53,30.00,10.0,NW,4.6,-,N/A,,Clear,320,2013-07-24 16:15:00
11:35 AM,75.6,56.8,52,30.00,10.0,NNW,5.8,-,N/A,,Clear,340,2013-07-24 16:35:00
11:55 AM,76.1,57.0,51,30.00,10.0,North,5.8,-,N/A,,Clear,360,2013-07-24 16:55:00
12:15 PM,76.8,58.3,53,30.00,10.0,NNW,6.9,-,N/A,,Clear,330,2013-07-24 17:15:00
12:35 PM,77.2,58.8,53,30.00,10.0,NNW,5.8,18.4,N/A,,Clear,330,2013-07-24 17:35:00
12:55 PM,77.5,57.9,51,30.00,10.0,North,4.6,-,N/A,,Clear,360,2013-07-24 17:55:00
1:15 PM,77.7,57.6,50,30.00,10.0,North,3.5,-,N/A,,Clear,10,2013-07-24 18:15:00
1:35 PM,78.3,56.8,48,30.00,10.0,WNW,4.6,-,N/A,,Clear,300,2013-07-24 18:35:00
1:55 PM,79.3,57.9,48,30.00,10.0,NNE,4.6,-,N/A,,Clear,30,2013-07-24 18:55:00
2:15 PM,79.0,57.6,48,30.00,10.0,North,8.1,-,N/A,,Clear,350,2013-07-24 19:15:00
2:35 PM,79.3,56.8,46,30.00,10.0,NNW,4.6,-,N/A,,Clear,340,2013-07-24 19:35:00
2:55 PM,79.7,57.2,46,30.00,10.0,North,6.9,-,N/A,,Clear,360,2013-07-24 19:55:00
3:15 PM,79.3,55.8,44,30.00,10.0,North,9.2,-,N/A,,Clear,350,2013-07-24 20:15:00
3:35 PM,79.7,55.9,44,30.00,10.0,North,6.9,-,N/A,,Clear,350,2013-07-24 20:35:00
3:55 PM,79.3,55.0,43,30.00,10.0,North,9.2,-,N/A,,Clear,10,2013-07-24 20:55:00
4:15 PM,79.3,54.9,43,29.99,10.0,NNE,6.9,-,N/A,,Clear,20,2013-07-24 21:15:00
4:35 PM,79.5,56.5,45,29.99,10.0,North,6.9,-,N/A,,Clear,360,2013-07-24 21:35:00
4:55 PM,79.7,55.4,43,29.99,10.0,NNE,8.1,-,N/A,,Clear,20,2013-07-24 21:55:00
5:15 PM,79.2,55.0,43,30.00,10.0,North,9.2,-,N/A,,Clear,10,2013-07-24 22:15:00
5:35 PM,78.8,54.3,43,29.99,10.0,NNE,6.9,-,N/A,,Clear,20,2013-07-24 22:35:00
5:55 PM,78.8,55.8,45,29.99,10.0,North,6.9,-,N/A,,Clear,350,2013-07-24 22:55:00
6:15 PM,77.9,54.3,44,29.99,10.0,North,8.1,-,N/A,,Clear,360,2013-07-24 23:15:00
6:35 PM,77.2,53.4,44,29.99,10.0,North,5.8,-,N/A,,Clear,10,2013-07-24 23:35:00
6:55 PM,76.8,54.5,46,30.00,10.0,NNE,6.9,-,N/A,,Clear,20,2013-07-24 23:55:00
7:15 PM,76.1,55.6,49,30.00,10.0,North,5.8,-,N/A,,Clear,10,2013-07-25 00:15:00
7:35 PM,74.8,57.0,54,30.00,10.0,North,4.6,-,N/A,,Clear,360,2013-07-25 00:35:00
7:55 PM,73.6,57.7,58,30.00,10.0,North,4.6,-,N/A,,Clear,360,2013-07-25 00:55:00
8:15 PM,71.4,59.2,65,30.00,10.0,North,4.6,-,N/A,,Clear,360,2013-07-25 01:15:00
8:35 PM,69.3,60.8,74,30.01,10.0,North,3.5,-,N/A,,Clear,360,2013-07-25 01:35:00
8:55 PM,68.9,60.1,73,30.01,10.0,North,3.5,-,N/A,,Clear,10,2013-07-25 01:55:00
9:15 PM,68.2,60.4,76,30.01,10.0,North,3.5,-,N/A,,Clear,360,2013-07-25 02:15:00
9:35 PM,67.1,60.8,80,30.02,10.0,Calm,Calm,-,N/A,,Clear,0,2013-07-25 02:35:00
9:55 PM,65.3,61.3,87,30.02,10.0,Calm,Calm,-,N/A,,Clear,0,2013-07-25 02:55:00
10:15 PM,66.4,60.6,82,30.03,10.0,Calm,Calm,-,N/A,,Clear,0,2013-07-25 03:15:00
10:35 PM,66.7,59.7,78,30.03,10.0,North,3.5,-,N/A,,Clear,10,2013-07-25 03:35:00
10:55 PM,66.4,59.9,80,30.04,10.0,North,3.5,-,N/A,,Clear,10,2013-07-25 03:55:00
11:15 PM,65.3,60.1,83,30.04,10.0,Calm,Calm,-,N/A,,Clear,0,2013-07-25 04:15:00
11:35 PM,65.5,59.9,82,30.04,10.0,Calm,Calm,-,N/A,,Clear,0,2013-07-25 04:35:00
11:55 PM,63.0,60.1,90,30.04,10.0,Calm,Calm,-,N/A,,Clear,0,2013-07-25 04:55:00